Orbital Elements at Epoch 2459200.5 (2020-Dec-17.0) TDB
Reference: JPL 15 (heliocentric ecliptic J2000)
Element | Value | Uncertainty (1-sigma) | Units |
e | .2225097082758279 | 3.4751e-08 | |
a | 2.437677039486613 | 1.5471e-08 | au |
q | 1.895270232559762 | 8.1434e-08 | au |
i | 3.191198385638621 | 3.5725e-06 | deg |
node | 133.0762745479186 | 0.00011403 | deg |
peri | 177.819957174071 | 0.00011538 | deg |
M | 87.45551631849487 | 1.9651e-05 | deg |
tp | 2458862.787306761753 (2020-Jan-14.28730676) | 7.3899e-05 | TDB |
period | 1390.153242283909 3.81 | 1.3234e-05 3.623e-08 | d yr |
n | .2589642559179657 | 2.4653e-09 | deg/d |
Q | 2.980083846413462 | 1.8913e-08 | au |
|
| | Orbit Determination Parameters
Additional Information
|